timestamp,wind_dir_avg,wind_spd_avg,wind_spd_max_dir,wind_spd_gust,battery_voltage,lat,long
2019-11-19 00:04:01+00:00,92.0,2.67,90.0,3.11,12.65,47.59359,-54.27349
2019-11-19 00:14:01+00:00,92.0,3.08,87.0,3.58,12.57,47.59359,-54.27349
2019-11-19 00:24:01+00:00,85.0,3.54,78.0,4.18,12.57,47.59359,-54.27349
2019-11-19 00:34:01+00:00,90.0,3.61,92.0,4.34,12.57,47.59359,-54.27349
2019-11-19 00:44:01+00:00,83.0,3.47,89.0,3.88,12.57,47.59359,-54.27349
2019-11-19 00:54:01+00:00,107.0,1.81,100.0,2.71,12.57,47.59359,-54.27349
2019-11-19 01:04:01+00:00,91.0,2.05,95.0,2.64,12.57,47.59359,-54.27349
2019-11-19 01:14:01+00:00,108.0,1.88,136.0,2.7,12.57,47.59359,-54.27349
2019-11-19 01:24:01+00:00,92.0,2.23,88.0,3.15,12.57,47.59359,-54.27349
2019-11-19 01:34:01+00:00,98.0,2.44,98.0,3.22,12.57,47.59359,-54.27349
2019-11-19 01:44:01+00:00,100.0,2.67,117.0,3.54,12.57,47.59359,-54.27349
2019-11-19 01:54:01+00:00,91.0,2.49,107.0,3.78,12.57,47.59359,-54.27349
2019-11-19 02:04:01+00:00,89.0,2.9,93.0,3.73,12.57,47.59359,-54.27349
2019-11-19 02:14:01+00:00,99.0,3.14,122.0,4.49,12.57,47.59359,-54.27349
2019-11-19 02:24:01+00:00,93.0,3.08,98.0,4.27,12.57,47.59359,-54.27349
2019-11-19 02:34:01+00:00,101.0,2.52,83.0,3.53,12.57,47.59359,-54.27349
2019-11-19 02:44:01+00:00,89.0,3.5,87.0,4.66,12.57,47.59359,-54.27349
2019-11-19 02:54:01+00:00,84.0,3.48,96.0,4.89,12.57,47.59359,-54.27349
2019-11-19 03:04:01+00:00,91.0,3.88,92.0,4.93,12.57,47.59359,-54.27349
2019-11-19 03:14:01+00:00,86.0,4.11,77.0,4.73,12.57,47.59359,-54.27349
2019-11-19 03:24:01+00:00,90.0,3.67,91.0,4.75,12.57,47.59359,-54.27349
2019-11-19 03:34:01+00:00,107.0,2.94,88.0,4.6,12.57,47.59359,-54.27349
2019-11-19 03:44:01+00:00,97.0,3.45,108.0,4.93,12.57,47.59359,-54.27349
2019-11-19 03:54:01+00:00,101.0,4.05,94.0,5.82,12.57,47.59359,-54.27349
2019-11-19 04:04:01+00:00,92.0,4.4,106.0,6.49,12.57,47.59359,-54.27349
2019-11-19 04:14:01+00:00,93.0,4.87,86.0,6.13,12.57,47.59359,-54.27349
2019-11-19 04:24:01+00:00,92.0,3.99,112.0,5.47,12.57,47.59359,-54.27349
2019-11-19 04:34:01+00:00,100.0,4.41,135.0,6.48,12.57,47.59359,-54.27349
2019-11-19 04:44:01+00:00,99.0,4.66,91.0,7.6,12.57,47.59359,-54.27349
2019-11-19 04:54:01+00:00,91.0,4.43,98.0,6.28,12.57,47.59359,-54.27349
2019-11-19 05:04:01+00:00,95.0,5.36,106.0,7.55,12.57,47.59359,-54.27349
2019-11-19 05:14:01+00:00,100.0,3.68,104.0,5.54,12.49,47.59359,-54.27349
2019-11-19 05:24:01+00:00,109.0,3.68,113.0,5.66,12.49,47.59359,-54.27349
2019-11-19 05:34:01+00:00,114.0,3.87,107.0,5.92,12.49,47.59359,-54.27349
2019-11-19 05:44:01+00:00,109.0,3.55,118.0,5.46,12.49,47.59359,-54.27349
2019-11-19 05:54:01+00:00,118.0,4.81,102.0,7.38,12.49,47.59359,-54.27349
2019-11-19 06:04:01+00:00,106.0,4.14,90.0,6.44,12.49,47.59359,-54.27349
2019-11-19 06:14:01+00:00,99.0,4.41,108.0,6.69,12.49,47.59359,-54.27349
2019-11-19 06:24:01+00:00,96.0,4.96,99.0,7.97,12.49,47.59359,-54.27349
2019-11-19 06:34:01+00:00,100.0,4.89,114.0,8.07,12.49,47.59359,-54.27349
2019-11-19 06:44:01+00:00,97.0,4.34,80.0,6.06,12.49,47.59359,-54.27349
2019-11-19 06:54:01+00:00,97.0,4.31,93.0,6.65,12.49,47.59359,-54.27349
2019-11-19 07:04:01+00:00,91.0,3.97,74.0,5.52,12.49,47.59359,-54.27349
2019-11-19 07:14:01+00:00,84.0,4.23,83.0,5.52,12.49,47.59359,-54.27349
2019-11-19 07:24:01+00:00,100.0,4.95,91.0,7.86,12.49,47.59359,-54.27349
2019-11-19 07:34:01+00:00,98.0,3.47,106.0,5.08,12.49,47.59359,-54.27349
2019-11-19 07:44:01+00:00,102.0,5.6,107.0,8.95,12.49,47.59359,-54.27349
2019-11-19 07:54:01+00:00,92.0,3.87,132.0,6.53,12.49,47.59359,-54.27349
2019-11-19 08:04:01+00:00,89.0,3.68,143.0,5.13,12.49,47.59359,-54.27349
2019-11-19 08:14:01+00:00,91.0,5.32,80.0,6.99,12.41,47.59359,-54.27349
2019-11-19 08:24:01+00:00,99.0,3.7,87.0,4.99,12.41,47.59359,-54.27349
2019-11-19 08:34:01+00:00,106.0,4.37,125.0,7.4,12.41,47.59359,-54.27349
2019-11-19 08:44:01+00:00,111.0,4.78,116.0,8.06,12.41,47.59359,-54.27349
2019-11-19 08:54:01+00:00,105.0,5.53,95.0,8.27,12.41,47.59359,-54.27349
2019-11-19 09:04:01+00:00,101.0,5.33,99.0,9.06,12.41,47.59359,-54.27349
2019-11-19 09:14:01+00:00,110.0,6.08,115.0,11.17,12.41,47.59359,-54.27349
2019-11-19 09:24:01+00:00,105.0,4.78,105.0,7.88,12.41,47.59359,-54.27349
2019-11-19 09:34:01+00:00,128.0,5.57,135.0,9.12,12.41,47.59359,-54.27349
2019-11-19 09:44:01+00:00,105.0,6.41,84.0,10.75,12.41,47.59359,-54.27349
2019-11-19 09:54:01+00:00,107.0,6.33,123.0,10.76,12.41,47.59359,-54.27349
2019-11-19 10:04:01+00:00,107.0,6.59,119.0,11.2,12.41,47.59359,-54.27349
2019-11-19 10:14:01+00:00,95.0,7.67,96.0,12.03,12.41,47.59359,-54.27349
2019-11-19 10:24:01+00:00,94.0,6.68,98.0,10.58,12.41,47.59359,-54.27349
2019-11-19 10:34:01+00:00,90.0,9.56,88.0,12.42,12.41,47.59359,-54.27349
2019-11-19 10:44:01+00:00,93.0,8.32,78.0,11.52,12.41,47.59359,-54.27349
2019-11-19 10:54:01+00:00,97.0,8.36,106.0,13.65,12.41,47.59359,-54.27349
2019-11-19 11:04:01+00:00,90.0,7.59,71.0,11.2,12.41,47.59359,-54.27349
2019-11-19 11:14:01+00:00,88.0,8.55,86.0,10.44,12.41,47.59359,-54.27349
2019-11-19 11:24:01+00:00,93.0,8.0,104.0,11.64,12.41,47.59359,-54.27349
2019-11-19 11:34:01+00:00,96.0,6.41,87.0,8.88,12.41,47.59359,-54.27349
2019-11-19 11:44:01+00:00,90.0,6.12,94.0,9.15,12.41,47.59359,-54.27349
2019-11-19 11:54:01+00:00,94.0,5.91,94.0,7.93,12.41,47.59359,-54.27349
2019-11-19 12:04:01+00:00,91.0,6.28,102.0,8.79,12.41,47.59359,-54.27349
2019-11-19 12:14:01+00:00,95.0,5.48,113.0,7.88,12.41,47.59359,-54.27349
2019-11-19 12:24:01+00:00,94.0,6.42,110.0,8.53,12.41,47.59359,-54.27349
2019-11-19 12:34:01+00:00,89.0,6.19,99.0,8.67,12.41,47.59359,-54.27349
2019-11-19 12:44:01+00:00,87.0,6.54,80.0,9.44,12.41,47.59359,-54.27349
2019-11-19 12:54:01+00:00,102.0,6.04,89.0,8.26,12.41,47.59359,-54.27349
2019-11-19 13:04:01+00:00,92.0,6.26,88.0,8.28,12.41,47.59359,-54.27349
2019-11-19 13:14:01+00:00,90.0,6.34,80.0,8.79,12.57,47.59359,-54.27349
2019-11-19 13:24:01+00:00,92.0,7.25,89.0,11.01,12.57,47.59359,-54.27349
2019-11-19 13:34:01+00:00,91.0,5.75,76.0,7.9,12.57,47.59359,-54.27349
2019-11-19 13:44:01+00:00,94.0,5.68,121.0,8.33,12.57,47.59359,-54.27349
2019-11-19 13:54:01+00:00,90.0,4.73,87.0,7.37,12.57,47.59359,-54.27349
2019-11-19 14:04:01+00:00,91.0,5.39,80.0,7.59,12.57,47.59359,-54.27349
2019-11-19 14:14:01+00:00,107.0,6.45,105.0,9.82,12.89,47.59359,-54.27349
2019-11-19 14:24:01+00:00,90.0,5.73,81.0,8.53,12.89,47.59359,-54.27349
2019-11-19 14:34:01+00:00,93.0,5.16,85.0,7.87,12.89,47.59359,-54.27349
2019-11-19 14:44:01+00:00,89.0,5.08,83.0,7.44,12.89,47.59359,-54.27349
2019-11-19 14:54:01+00:00,100.0,5.14,109.0,7.86,12.89,47.59359,-54.27349
2019-11-19 15:04:01+00:00,92.0,4.43,97.0,7.08,12.89,47.59359,-54.27349
2019-11-19 15:14:01+00:00,96.0,4.78,101.0,7.16,13.13,47.59359,-54.27349
2019-11-19 15:24:01+00:00,96.0,5.16,92.0,7.55,13.13,47.59359,-54.27349
2019-11-19 15:34:01+00:00,86.0,5.27,81.0,6.74,13.13,47.59359,-54.27349
2019-11-19 15:44:01+00:00,95.0,3.86,94.0,5.63,13.13,47.59359,-54.27349
2019-11-19 15:54:01+00:00,89.0,4.96,96.0,6.09,13.13,47.59359,-54.27349
2019-11-19 16:04:01+00:00,86.0,4.21,97.0,5.37,13.13,47.59359,-54.27349
2019-11-19 16:14:01+00:00,86.0,5.82,82.0,6.91,13.13,47.59359,-54.27349
2019-11-19 16:24:01+00:00,84.0,5.43,82.0,6.26,13.13,47.59359,-54.27349
2019-11-19 16:34:01+00:00,79.0,4.83,84.0,5.54,13.13,47.59359,-54.27349
2019-11-19 16:44:01+00:00,80.0,4.47,74.0,5.18,13.13,47.59359,-54.27349
2019-11-19 16:54:01+00:00,78.0,4.57,72.0,5.77,13.13,47.59359,-54.27349
2019-11-19 17:04:01+00:00,74.0,4.17,71.0,4.8,13.13,47.59359,-54.27349
2019-11-19 17:14:01+00:00,85.0,3.88,87.0,4.19,13.05,47.59359,-54.27349
2019-11-19 17:24:01+00:00,78.0,3.81,82.0,4.32,13.05,47.59359,-54.27349
2019-11-19 17:34:01+00:00,73.0,4.62,75.0,4.94,13.05,47.59359,-54.27349
2019-11-19 17:44:01+00:00,65.0,4.17,63.0,4.55,13.05,47.59359,-54.27349
2019-11-19 17:54:01+00:00,57.0,4.56,57.0,4.91,13.05,47.59359,-54.27349
2019-11-19 18:04:01+00:00,53.0,5.02,51.0,5.5,13.05,47.59359,-54.27349
2019-11-19 18:14:01+00:00,52.0,5.15,51.0,5.7,13.05,47.59359,-54.27349
2019-11-19 18:24:01+00:00,52.0,5.77,52.0,6.4,13.05,47.59359,-54.27349
2019-11-19 18:34:01+00:00,55.0,4.95,58.0,5.48,13.05,47.59359,-54.27349
2019-11-19 18:44:01+00:00,53.0,5.09,53.0,5.66,13.05,47.59359,-54.27349
2019-11-19 18:54:01+00:00,54.0,4.8,54.0,5.7,13.05,47.59359,-54.27349
2019-11-19 19:04:01+00:00,44.0,5.52,44.0,5.96,13.05,47.59359,-54.27349
2019-11-19 19:14:01+00:00,57.0,4.14,51.0,5.42,12.89,47.59359,-54.27349
2019-11-19 19:24:01+00:00,55.0,3.28,55.0,3.73,12.89,47.59359,-54.27349
2019-11-19 19:34:01+00:00,65.0,3.36,63.0,3.81,12.89,47.59359,-54.27349
2019-11-19 19:44:01+00:00,68.0,3.22,66.0,3.44,12.89,47.59359,-54.27349
2019-11-19 19:54:01+00:00,55.0,2.94,55.0,3.12,12.89,47.59359,-54.27349
2019-11-19 20:04:01+00:00,61.0,2.2,58.0,2.4,12.89,47.59359,-54.27349
2019-11-19 20:14:01+00:00,47.0,1.69,43.0,1.96,12.65,47.59359,-54.27349
2019-11-19 20:24:01+00:00,56.0,1.53,56.0,1.73,12.65,47.59359,-54.27349
2019-11-19 20:34:01+00:00,40.0,1.28,44.0,1.48,12.65,47.59359,-54.27349
2019-11-19 20:44:01+00:00,77.0,0.47,86.0,0.82,12.65,47.59359,-54.27349
2019-11-19 20:54:01+00:00,207.0,1.99,209.0,3.07,12.65,47.59359,-54.27349
2019-11-19 21:04:01+00:00,232.0,6.82,234.0,8.87,12.65,47.59359,-54.27349
2019-11-19 21:14:01+00:00,230.0,10.75,228.0,12.63,12.57,47.59359,-54.27349
2019-11-19 21:24:01+00:00,230.0,9.73,225.0,11.49,12.57,47.59359,-54.27349
2019-11-19 21:34:01+00:00,234.0,10.43,239.0,11.98,12.57,47.59359,-54.27349
2019-11-19 21:44:01+00:00,232.0,9.89,233.0,10.94,12.57,47.59359,-54.27349
2019-11-19 21:54:01+00:00,234.0,9.74,231.0,11.61,12.57,47.59359,-54.27349
2019-11-19 22:04:01+00:00,232.0,10.06,230.0,11.43,12.57,47.59359,-54.27349
2019-11-19 22:14:01+00:00,233.0,9.31,234.0,10.93,12.57,47.59359,-54.27349
2019-11-19 22:24:01+00:00,241.0,10.21,245.0,12.77,12.57,47.59359,-54.27349
2019-11-19 22:34:01+00:00,241.0,10.16,253.0,12.79,12.57,47.59359,-54.27349
2019-11-19 22:44:01+00:00,243.0,9.8,238.0,12.11,12.57,47.59359,-54.27349
2019-11-19 22:54:01+00:00,256.0,11.95,256.0,14.0,12.57,47.59359,-54.27349
2019-11-19 23:04:01+00:00,260.0,11.13,268.0,12.81,12.57,47.59359,-54.27349
2019-11-19 23:14:01+00:00,255.0,12.6,253.0,14.07,12.49,47.59359,-54.27349
2019-11-19 23:24:01+00:00,255.0,10.93,253.0,12.19,12.49,47.59359,-54.27349
2019-11-19 23:34:01+00:00,267.0,10.88,267.0,12.31,12.49,47.59359,-54.27349
2019-11-19 23:44:01+00:00,255.0,10.69,254.0,12.85,12.49,47.59359,-54.27349
2019-11-19 23:54:01+00:00,257.0,10.86,259.0,12.91,12.49,47.59359,-54.27349
